Location: Ku?niki
(51.4449°N, 17.8974°E)
Time: 16:09:43
(UTC+00:00)

Meteor 1-24 Rocket - Pass Details

Date: 18 September 2020
Orbit: 790 x 927 km, 81.2° (Epoch: 22 October)

Event Time Altitude Azimuth Distance (km) Brightness Sun altitude
Rises 19:04:47 0° 348° (NNW) 3,339 7.4 -20.1°
Reaches altitude 10° 19:07:10 10° 352° (N) 2,419 6.6 -20.4°
Maximum altitude 19:12:37 67° 75° (ENE) 907 3.6 -21.1°
Enters shadow 19:14:23 43° 141° (SE) 1,170 4.0 -21.3°
